Location: Observatory
(52.1446°N, 0.4624°W)
Time: 09:09:13
(UTC+01:00)

ISS - Pass Details

Date: 30 March 2019
Orbit: 408 x 410 km, 51.6° (Epoch: 25 April)

Event Time Altitude Azimuth Distance (km) Brightness Sun altitude
Rises 19:47:56 0° 272° (W) 2,338 1.5 -12.1°
Reaches altitude 10° 19:50:02 10° 271° (W) 1,476 0.2 -12.4°
Maximum altitude 19:53:20 83° 184° (S) 418 -3.9 -12.8°
Enters shadow 19:55:11 24° 98° (E) 896 -2.7 -13.1°
